[Iaude] MPEC V177: 2023 VV5 [a=2.32,e=0.72,i=12.2,H=22.2]
    mpec at marsden.cfa.harvard.edu 
    mpec at marsden.cfa.harvard.edu
       
    Fri Nov 10 14:38:35 EST 2023
    
    
  
M.P.E.C. 2023-V177                            Issued 2023 November 10, 19:36 UT
     The Minor Planet Electronic Circulars contain information on unusual
         minor planets, routine data on comets and natural satellites,
         and occasional editorial announcements.  They are published
    on behalf of Division F of the International Astronomical Union by the
          Minor Planet Center, Smithsonian Astrophysical Observatory,
                          Cambridge, MA 02138, U.S.A.
			  
             Prepared using the Tamkin Foundation Computer Network
                              MPC at CFA.HARVARD.EDU
            URL https://www.minorplanetcenter.net/    ISSN 1523-6714
                                    2023 VV5                                    
Observations:
     K23V05V  C2023 10 21.47673503 47 25.018-11 41 01.69         22.27GVEV177F51
     K23V05V  C2023 10 21.48833803 47 25.000-11 41 19.89         21.97GVEV177F51
     K23V05V  C2023 10 21.49993303 47 24.999-11 41 38.58         22.58GVEV177F51
     K23V05V  C2023 10 30.46505503 46 15.171-16 18 41.99         21.65GVEV177F51
     K23V05V  C2023 10 30.47755003 46 14.765-16 19 09.35         22.33GVEV177F51
     K23V05V  C2023 10 30.49002403 46 14.392-16 19 35.97         21.93GVEV177F51
     K23V05V  C2023 10 30.50250803 46 13.997-16 20 02.96         22.62GVEV177F51
     K23V05V* C2023 11 08.43295103 39 59.786-22 46 25.20         21.99wXEV177F52
     K23V05V  C2023 11 08.44591903 39 58.780-22 47 05.85         21.86wXEV177F52
     K23V05V  C2023 11 08.45885903 39 57.768-22 47 46.18         21.51wXEV177F52
     K23V05V  C2023 11 08.52982103 39 52.228-22 51 27.52         21.55GVEV177F52
     K23V05V  C2023 11 08.53110103 39 52.140-22 51 31.41         21.44GVEV177F52
     K23V05V  C2023 11 08.53174203 39 52.092-22 51 33.44         21.50GVEV177F52
     K23V05V KC2023 11 10.41689003 37 35.37 -24 34 07.5          20.7 GVEV177474
     K23V05V KC2023 11 10.41987603 37 35.07 -24 34 17.7          21.2 GVEV177474
     K23V05V KC2023 11 10.42286103 37 34.82 -24 34 28.3          21.0 GVEV177474
     K23V05V KC2023 11 10.42683503 37 34.45 -24 34 41.8          21.2 GVEV177474
     K23V05V KC2023 11 10.42981903 37 34.21 -24 34 52.3          21.1 GVEV177474
     K23V05V KC2023 11 10.43280403 37 33.92 -24 35 02.7          21.2 GVEV177474
Observer details:
474 Mount John Observatory, Lake Tekapo.  Observers A. C. Gilmore, P. M.
    Kilmartin.  Measurer P. M. Kilmartin.  1.0-m f/7.7 reflector + CCD.
F51 Pan-STARRS 1, Haleakala.  Observers J. Bulger, T. Lowe, P. Minguez, A.
    Schultz, I. Smith.  Measurers K. Chambers, T. de Boer, J. Fairlamb, H.
    Gao, M. Huber, C.-C. Lin, E. Magnier, Y. Ramanjooloo, R. Wainscoat, R.
    Weryk.  1.8-m Ritchey-Chretien + CCD.
F52 Pan-STARRS 2, Haleakala.  Observers J. Bulger, T. Lowe, P. Minguez, A.
    Schultz, I. Smith.  Measurers K. Chambers, T. de Boer, J. Fairlamb, H.
    Gao, M. Huber, C.-C. Lin, E. Magnier, Y. Ramanjooloo, R. Wainscoat, R.
    Weryk.  1.8-m Ritchey-Chretien + CCD.
Orbital elements:
2023 VV5                                                 Earth MOID = 0.1076 AU
Epoch 2023 Sept. 13.0 TT = JDT 2460200.5                MPC                     
M 325.81493              (2000.0)            P               Q                  
n   0.27823587     Peri.   44.65563     -0.77588045     -0.59533187             
a   2.3237745      Node    97.67145     +0.50375659     -0.78385273             
e   0.7156979      Incl.   12.16141     +0.37978787     -0.17650741             
P   3.54           H   22.28          G   0.15           U   7                  
Residuals in seconds of arc
231021 F51  0.1-  0.1-    231108 F52  0.0   0.1+    231110 474  0.1-  0.0
231021 F51  0.1-  0.2+    231108 F52  0.1+  0.0     231110 474  0.1+  0.2-
231021 F51  0.2+  0.0     231108 F52  0.0   0.2+    231110 474  0.2-  0.1+
231030 F51  0.2+  0.1+    231108 F52  0.1-  0.0     231110 474  0.1+  0.1-
231030 F51  0.1-  0.3-    231108 F52  0.0   0.1+    231110 474  0.3-  0.1-
231030 F51  0.0   0.1+    231108 F52  0.1+  0.1+
231030 F51  0.2-  0.1+    231110 474  0.4+  0.1-
Ephemeris:
2023 VV5                 a,e,i = 2.32, 0.72, 12                  q = 0.6607
Date    TT    R. A. (2000) Decl.     Delta      r    Elong.  Phase     V
2023 10 11    03 44 35.8 -07 43 47   0.6789  1.5662   137.2    25.7    23.6
...
2023 10 26    03 47 19.4 -13 49 59   0.4756  1.4025   142.7    25.5    22.6
...
2023 11 03    03 44 32.8 -18 34 36   0.3800  1.3125   141.9    27.8    22.0
...
2023 11 09    03 39 20.9 -23 15 58   0.3143  1.2440   138.6    31.8    21.6
2023 11 10    03 38 07.3 -24 10 41   0.3038  1.2325   137.8    32.7    21.5
2023 11 11    03 36 45.9 -25 08 07   0.2935  1.2210   136.8    33.7    21.5
...
2023 11 17    03 25 03.6 -32 04 27   0.2350  1.1518   129.1    41.7    21.1
...
2023 11 25    02 49 23.5 -46 24 45   0.1679  1.0594   111.1    60.4    20.7
...
2023 12 10    18 42 06.6 -58 37 01   0.1266  0.8913    39.8   135.0    23.8
A. U. Tomatic                (C) Copyright 2023 MPC           M.P.E.C. 2023-V177
    
    
More information about the Iaude
mailing list